Time,TemperatureF,DewpointF,PressureIn,WindDirection,WindDirectionDegrees,WindSpeedMPH,WindSpeedGustMPH,Humidity,HourlyPrecipIn,Conditions,Clouds,dailyrainin,SoftwareType,DateUTC
2015-07-04 00:02:00,64.6,58.3,29.95,North,-9999,-999.9,-999.0,80,0.00,,,0.02,meteohub,2015-07-04 05:02:00,
2015-07-04 00:07:00,64.2,58.6,29.95,North,-9999,-999.9,-999.0,82,0.00,,,0.00,meteohub,2015-07-04 05:07:00,
2015-07-04 00:12:00,63.9,58.6,29.94,North,-9999,-999.9,-999.0,83,0.00,,,0.00,meteohub,2015-07-04 05:12:00,
2015-07-04 00:17:00,63.5,58.3,29.94,North,-9999,-999.9,-999.0,83,0.00,,,0.00,meteohub,2015-07-04 05:17:00,
2015-07-04 00:22:00,63.5,58.6,29.95,North,-9999,-999.9,-999.0,84,0.00,,,0.00,meteohub,2015-07-04 05:22:00,
2015-07-04 00:27:00,63.3,58.8,29.95,North,-9999,-999.9,-999.0,85,0.00,,,0.00,meteohub,2015-07-04 05:27:00,
2015-07-04 00:32:00,63.3,59.0,29.94,North,-9999,-999.9,-999.0,86,0.00,,,0.00,meteohub,2015-07-04 05:32:00,
2015-07-04 00:37:00,63.1,59.2,29.94,North,-9999,-999.9,-999.0,87,0.00,,,0.00,meteohub,2015-07-04 05:37:00,
2015-07-04 00:42:00,63.1,59.2,29.94,North,-9999,-999.9,-999.0,87,0.00,,,0.00,meteohub,2015-07-04 05:42:00,
2015-07-04 00:47:00,63.0,59.4,29.94,North,-9999,-999.9,-999.0,88,0.00,,,0.00,meteohub,2015-07-04 05:47:00,
2015-07-04 00:52:00,63.0,59.4,29.94,North,-9999,-999.9,-999.0,88,0.00,,,0.00,meteohub,2015-07-04 05:52:00,
2015-07-04 00:57:00,63.1,59.5,29.94,North,-9999,-999.9,-999.0,88,0.00,,,0.00,meteohub,2015-07-04 05:57:00,
2015-07-04 01:07:00,63.0,59.4,29.94,North,-9999,-999.9,-999.0,88,0.00,,,0.00,meteohub,2015-07-04 06:07:00,
2015-07-04 01:12:00,63.0,59.4,29.94,North,-9999,-999.9,-999.0,88,0.00,,,0.00,meteohub,2015-07-04 06:12:00,
2015-07-04 01:17:00,63.0,59.4,29.94,North,-9999,-999.9,-999.0,88,0.00,,,0.00,meteohub,2015-07-04 06:17:00,
2015-07-04 01:22:00,63.0,59.4,29.94,North,-9999,-999.9,-999.0,88,0.00,,,0.00,meteohub,2015-07-04 06:22:00,
2015-07-04 01:27:00,63.0,59.4,29.94,North,-9999,-999.9,-999.0,88,0.00,,,0.00,meteohub,2015-07-04 06:27:00,
2015-07-04 01:32:00,63.0,59.7,29.94,North,-9999,-999.9,-999.0,89,0.00,,,0.00,meteohub,2015-07-04 06:32:00,
2015-07-04 01:37:00,62.8,59.5,29.94,North,-9999,-999.9,-999.0,89,0.00,,,0.00,meteohub,2015-07-04 06:37:00,
2015-07-04 01:42:00,62.8,59.5,29.94,North,-9999,-999.9,-999.0,89,0.00,,,0.00,meteohub,2015-07-04 06:42:00,
2015-07-04 01:47:00,62.6,59.5,29.94,North,-9999,-999.9,-999.0,90,0.00,,,0.00,meteohub,2015-07-04 06:47:00,
2015-07-04 01:52:00,62.4,59.4,29.94,North,-9999,-999.9,-999.0,90,0.00,,,0.00,meteohub,2015-07-04 06:52:00,
2015-07-04 01:57:00,62.4,59.4,29.95,North,-9999,-999.9,-999.0,90,0.00,,,0.00,meteohub,2015-07-04 06:57:00,
2015-07-04 02:02:00,62.4,59.2,29.95,North,-9999,-999.9,-999.0,89,0.00,,,0.00,meteohub,2015-07-04 07:02:00,
2015-07-04 02:07:00,62.6,59.0,29.95,North,-9999,-999.9,-999.0,88,0.00,,,0.00,meteohub,2015-07-04 07:07:00,
2015-07-04 02:12:00,62.6,59.0,29.95,North,-9999,-999.9,-999.0,88,0.00,,,0.00,meteohub,2015-07-04 07:12:00,
2015-07-04 02:17:00,62.4,59.2,29.95,North,-9999,-999.9,-999.0,89,0.00,,,0.00,meteohub,2015-07-04 07:17:00,
2015-07-04 02:22:00,62.4,59.2,29.95,North,-9999,-999.9,-999.0,89,0.00,,,0.00,meteohub,2015-07-04 07:22:00,
2015-07-04 02:27:00,62.2,59.0,29.94,North,-9999,-999.9,-999.0,89,0.00,,,0.00,meteohub,2015-07-04 07:27:00,
2015-07-04 02:32:00,62.2,59.0,29.95,North,-9999,-999.9,-999.0,89,0.00,,,0.00,meteohub,2015-07-04 07:32:00,
2015-07-04 02:37:00,62.1,58.8,29.94,North,-9999,-999.9,-999.0,89,0.00,,,0.00,meteohub,2015-07-04 07:37:00,
2015-07-04 02:42:00,62.1,58.8,29.94,North,-9999,-999.9,-999.0,89,0.00,,,0.00,meteohub,2015-07-04 07:42:00,
2015-07-04 02:47:00,62.1,58.8,29.94,North,-9999,-999.9,-999.0,89,0.00,,,0.00,meteohub,2015-07-04 07:47:00,
2015-07-04 02:52:00,61.9,58.6,29.95,North,-9999,-999.9,-999.0,89,0.00,,,0.00,meteohub,2015-07-04 07:52:00,
2015-07-04 02:57:00,61.9,58.3,29.94,North,-9999,-999.9,-999.0,88,0.00,,,0.00,meteohub,2015-07-04 07:57:00,
2015-07-04 03:02:00,62.1,58.1,29.94,North,-9999,-999.9,-999.0,87,0.00,,,0.00,meteohub,2015-07-04 08:02:00,
2015-07-04 03:07:00,62.1,57.7,29.94,North,-9999,-999.9,-999.0,86,0.00,,,0.00,meteohub,2015-07-04 08:07:00,
2015-07-04 03:12:00,62.1,57.7,29.94,North,-9999,-999.9,-999.0,86,0.00,,,0.00,meteohub,2015-07-04 08:12:00,
2015-07-04 03:17:00,61.9,57.6,29.94,North,-9999,-999.9,-999.0,86,0.00,,,0.00,meteohub,2015-07-04 08:17:00,
2015-07-04 03:22:00,61.9,57.6,29.94,North,-9999,-999.9,-999.0,86,0.00,,,0.00,meteohub,2015-07-04 08:22:00,
2015-07-04 03:27:00,61.7,57.4,29.94,North,-9999,-999.9,-999.0,86,0.00,,,0.00,meteohub,2015-07-04 08:27:00,
2015-07-04 03:32:00,61.7,57.4,29.94,North,-9999,-999.9,-999.0,86,0.00,,,0.00,meteohub,2015-07-04 08:32:00,
2015-07-04 03:37:00,61.7,57.4,29.95,North,-9999,-999.9,-999.0,86,0.00,,,0.00,meteohub,2015-07-04 08:37:00,
2015-07-04 03:42:00,61.5,57.6,29.94,North,-9999,-999.9,-999.0,87,0.00,,,0.00,meteohub,2015-07-04 08:42:00,
2015-07-04 03:47:00,61.5,57.4,29.95,North,-9999,-999.9,-999.0,86,0.00,,,0.00,meteohub,2015-07-04 08:47:00,
2015-07-04 03:52:00,61.5,57.4,29.95,North,-9999,-999.9,-999.0,86,0.00,,,0.00,meteohub,2015-07-04 08:52:00,
2015-07-04 03:57:00,61.5,57.0,29.95,North,-9999,-999.9,-999.0,85,0.00,,,0.00,meteohub,2015-07-04 08:57:00,
2015-07-04 04:02:00,61.5,57.0,29.95,North,-9999,-999.9,-999.0,85,0.00,,,0.00,meteohub,2015-07-04 09:02:00,
2015-07-04 04:07:00,61.5,57.0,29.95,North,-9999,-999.9,-999.0,85,0.00,,,0.00,meteohub,2015-07-04 09:07:00,
2015-07-04 04:12:00,61.5,57.0,29.95,North,-9999,-999.9,-999.0,85,0.00,,,0.00,meteohub,2015-07-04 09:12:00,
2015-07-04 04:17:00,61.3,57.2,29.95,North,-9999,-999.9,-999.0,86,0.00,,,0.00,meteohub,2015-07-04 09:17:00,
2015-07-04 04:22:00,61.2,57.0,29.95,North,-9999,-999.9,-999.0,86,0.00,,,0.00,meteohub,2015-07-04 09:22:00,
2015-07-04 04:27:00,61.0,56.8,29.96,North,-9999,-999.9,-999.0,86,0.00,,,0.00,meteohub,2015-07-04 09:27:00,
2015-07-04 04:32:00,61.0,56.8,29.95,North,-9999,-999.9,-999.0,86,0.00,,,0.00,meteohub,2015-07-04 09:32:00,
2015-07-04 04:37:00,61.0,56.8,29.95,North,-9999,-999.9,-999.0,86,0.00,,,0.00,meteohub,2015-07-04 09:37:00,
2015-07-04 04:42:00,61.0,56.8,29.95,North,-9999,-999.9,-999.0,86,0.00,,,0.00,meteohub,2015-07-04 09:42:00,
2015-07-04 04:47:00,60.8,56.7,29.96,North,-9999,-999.9,-999.0,86,0.00,,,0.00,meteohub,2015-07-04 09:47:00,
2015-07-04 04:52:00,60.6,56.7,29.95,North,-9999,-999.9,-999.0,87,0.00,,,0.00,meteohub,2015-07-04 09:52:00,
2015-07-04 04:57:00,60.4,56.8,29.95,North,-9999,-999.9,-999.0,88,0.00,,,0.00,meteohub,2015-07-04 09:57:00,
2015-07-04 05:02:00,60.4,56.8,29.95,North,-9999,-999.9,-999.0,88,0.00,,,0.00,meteohub,2015-07-04 10:02:00,
2015-07-04 05:07:00,60.3,57.0,29.95,North,-9999,-999.9,-999.0,89,0.00,,,0.00,meteohub,2015-07-04 10:07:00,
2015-07-04 05:12:00,60.3,57.0,29.96,North,-9999,-999.9,-999.0,89,0.00,,,0.00,meteohub,2015-07-04 10:12:00,
2015-07-04 05:17:00,60.3,57.0,29.96,North,-9999,-999.9,-999.0,89,0.00,,,0.00,meteohub,2015-07-04 10:17:00,
2015-07-04 05:22:00,60.3,57.0,29.96,North,-9999,-999.9,-999.0,89,0.00,,,0.00,meteohub,2015-07-04 10:22:00,
2015-07-04 05:27:00,60.3,57.0,29.96,North,-9999,-999.9,-999.0,89,0.00,,,0.00,meteohub,2015-07-04 10:27:00,
2015-07-04 05:32:00,60.3,57.0,29.96,North,-9999,-999.9,-999.0,89,0.00,,,0.00,meteohub,2015-07-04 10:32:00,
2015-07-04 05:37:00,60.4,56.8,29.96,North,-9999,-999.9,-999.0,88,0.00,,,0.00,meteohub,2015-07-04 10:37:00,
2015-07-04 05:42:00,60.4,56.8,29.96,North,-9999,-999.9,-999.0,88,0.00,,,0.00,meteohub,2015-07-04 10:42:00,
2015-07-04 05:47:00,60.4,56.8,29.71,North,-9999,-999.9,-999.0,88,0.00,,,0.00,meteohub,2015-07-04 10:47:00,
2015-07-04 05:52:00,60.6,57.0,29.96,North,-9999,-999.9,-999.0,88,0.00,,,0.00,meteohub,2015-07-04 10:52:00,
2015-07-04 05:57:00,60.8,57.2,29.96,North,-9999,-999.9,-999.0,88,0.00,,,0.00,meteohub,2015-07-04 10:57:00,
2015-07-04 06:02:00,60.8,57.2,29.97,North,-9999,-999.9,-999.0,88,0.00,,,0.00,meteohub,2015-07-04 11:02:00,
2015-07-04 06:07:00,61.2,57.2,29.96,North,-9999,-999.9,-999.0,87,0.00,,,0.00,meteohub,2015-07-04 11:07:00,
2015-07-04 06:12:00,61.3,57.4,29.96,North,-9999,-999.9,-999.0,87,0.00,,,0.00,meteohub,2015-07-04 11:12:00,
2015-07-04 06:17:00,61.7,57.4,29.97,North,-9999,-999.9,-999.0,86,0.00,,,0.00,meteohub,2015-07-04 11:17:00,
2015-07-04 06:22:00,61.9,57.6,29.96,North,-9999,-999.9,-999.0,86,0.00,,,0.00,meteohub,2015-07-04 11:22:00,
2015-07-04 06:27:00,62.1,57.7,29.96,North,-9999,-999.9,-999.0,86,0.00,,,0.00,meteohub,2015-07-04 11:27:00,
2015-07-04 06:32:00,62.1,57.7,29.97,North,-9999,-999.9,-999.0,86,0.00,,,0.00,meteohub,2015-07-04 11:32:00,
2015-07-04 06:37:00,62.2,57.9,29.96,North,-9999,-999.9,-999.0,86,0.00,,,0.00,meteohub,2015-07-04 11:37:00,
2015-07-04 06:42:00,62.6,58.3,29.96,North,-9999,-999.9,-999.0,86,0.00,,,0.00,meteohub,2015-07-04 11:42:00,
2015-07-04 06:47:00,62.8,58.5,29.96,North,-9999,-999.9,-999.0,86,0.00,,,0.00,meteohub,2015-07-04 11:47:00,
2015-07-04 06:52:00,62.8,58.5,29.96,North,-9999,-999.9,-999.0,86,0.00,,,0.00,meteohub,2015-07-04 11:52:00,
2015-07-04 06:57:00,63.0,58.6,29.96,North,-9999,-999.9,-999.0,86,0.00,,,0.00,meteohub,2015-07-04 11:57:00,
2015-07-04 07:02:00,63.0,58.6,29.96,North,-9999,-999.9,-999.0,86,0.00,,,0.00,meteohub,2015-07-04 12:02:00,
2015-07-04 07:07:00,63.3,59.0,29.96,North,-9999,-999.9,-999.0,86,0.00,,,0.00,meteohub,2015-07-04 12:07:00,
2015-07-04 07:12:00,63.5,59.2,29.97,North,-9999,-999.9,-999.0,86,0.00,,,0.00,meteohub,2015-07-04 12:12:00,
2015-07-04 07:17:00,64.0,59.7,29.96,North,-9999,-999.9,-999.0,86,0.00,,,0.00,meteohub,2015-07-04 12:17:00,
2015-07-04 07:22:00,64.4,60.1,29.97,North,-9999,-999.9,-999.0,86,0.00,,,0.00,meteohub,2015-07-04 12:22:00,
2015-07-04 07:27:00,64.6,60.3,29.97,North,-9999,-999.9,-999.0,86,0.00,,,0.00,meteohub,2015-07-04 12:27:00,
2015-07-04 07:32:00,65.1,60.8,29.97,North,-9999,-999.9,-999.0,86,0.00,,,0.00,meteohub,2015-07-04 12:32:00,
2015-07-04 07:37:00,65.5,61.2,29.96,North,-9999,-999.9,-999.0,86,0.00,,,0.00,meteohub,2015-07-04 12:37:00,
2015-07-04 07:42:00,65.8,61.5,29.97,North,-9999,-999.9,-999.0,86,0.00,,,0.00,meteohub,2015-07-04 12:42:00,
2015-07-04 07:47:00,66.0,61.3,29.97,North,-9999,-999.9,-999.0,85,0.00,,,0.00,meteohub,2015-07-04 12:47:00,
2015-07-04 07:52:00,66.2,61.5,29.96,North,-9999,-999.9,-999.0,85,0.00,,,0.00,meteohub,2015-07-04 12:52:00,
2015-07-04 07:57:00,66.6,62.2,29.97,North,-9999,-999.9,-999.0,86,0.00,,,0.00,meteohub,2015-07-04 12:57:00,
2015-07-04 08:02:00,66.7,62.1,29.97,North,-9999,-999.9,-999.0,85,0.00,,,0.00,meteohub,2015-07-04 13:02:00,
2015-07-04 08:07:00,66.9,62.6,29.97,North,-9999,-999.9,-999.0,86,0.00,,,0.00,meteohub,2015-07-04 13:07:00,
2015-07-04 08:12:00,67.3,63.0,29.97,North,-9999,-999.9,-999.0,86,0.00,,,0.00,meteohub,2015-07-04 13:12:00,
2015-07-04 08:17:00,67.8,63.5,29.97,North,-9999,-999.9,-999.0,86,0.00,,,0.00,meteohub,2015-07-04 13:17:00,
2015-07-04 08:22:00,68.4,63.7,29.97,North,-9999,-999.9,-999.0,85,0.00,,,0.00,meteohub,2015-07-04 13:22:00,
2015-07-04 08:27:00,68.9,64.2,29.97,North,-9999,-999.9,-999.0,85,0.00,,,0.00,meteohub,2015-07-04 13:27:00,
2015-07-04 08:32:00,69.4,64.4,29.97,North,-9999,-999.9,-999.0,84,0.00,,,0.00,meteohub,2015-07-04 13:32:00,
2015-07-04 08:37:00,70.2,64.4,29.97,North,-9999,-999.9,-999.0,82,0.00,,,0.00,meteohub,2015-07-04 13:37:00,
2015-07-04 08:42:00,70.7,63.5,29.98,North,-9999,-999.9,-999.0,78,0.00,,,0.00,meteohub,2015-07-04 13:42:00,
2015-07-04 08:47:00,71.4,63.1,29.97,North,-9999,-999.9,-999.0,75,0.00,,,0.00,meteohub,2015-07-04 13:47:00,
2015-07-04 08:52:00,72.0,62.8,29.98,North,-9999,-999.9,-999.0,73,0.00,,,0.00,meteohub,2015-07-04 13:52:00,
2015-07-04 08:57:00,72.7,63.1,29.97,North,-9999,-999.9,-999.0,72,0.00,,,0.00,meteohub,2015-07-04 13:57:00,
2015-07-04 09:02:00,73.2,62.8,29.97,North,-9999,-999.9,-999.0,70,0.00,,,0.00,meteohub,2015-07-04 14:02:00,
2015-07-04 09:07:00,73.0,61.9,29.98,North,-9999,-999.9,-999.0,68,0.00,,,0.00,meteohub,2015-07-04 14:07:00,
2015-07-04 09:12:00,73.4,62.2,29.97,North,-9999,-999.9,-999.0,68,0.00,,,0.00,meteohub,2015-07-04 14:12:00,
2015-07-04 09:17:00,73.8,61.7,29.97,North,-9999,-999.9,-999.0,66,0.00,,,0.00,meteohub,2015-07-04 14:17:00,
2015-07-04 09:22:00,73.9,61.3,29.97,North,-9999,-999.9,-999.0,65,0.00,,,0.00,meteohub,2015-07-04 14:22:00,
2015-07-04 09:27:00,74.1,61.5,29.97,North,-9999,-999.9,-999.0,65,0.00,,,0.00,meteohub,2015-07-04 14:27:00,
2015-07-04 09:32:00,74.5,61.0,29.98,North,-9999,-999.9,-999.0,63,0.00,,,0.00,meteohub,2015-07-04 14:32:00,
2015-07-04 09:37:00,75.0,61.2,29.98,North,-9999,-999.9,-999.0,62,0.00,,,0.00,meteohub,2015-07-04 14:37:00,
2015-07-04 09:42:00,75.2,61.3,29.98,North,-9999,-999.9,-999.0,62,0.00,,,0.00,meteohub,2015-07-04 14:42:00,
2015-07-04 09:47:00,75.2,60.4,29.98,North,-9999,-999.9,-999.0,60,0.00,,,0.00,meteohub,2015-07-04 14:47:00,
2015-07-04 09:52:00,75.2,60.4,29.98,North,-9999,-999.9,-999.0,60,0.00,,,0.00,meteohub,2015-07-04 14:52:00,
2015-07-04 09:57:00,75.2,59.9,29.98,North,-9999,-999.9,-999.0,59,0.00,,,0.00,meteohub,2015-07-04 14:57:00,
2015-07-04 10:02:00,75.6,61.2,29.98,North,-9999,-999.9,-999.0,61,0.00,,,0.00,meteohub,2015-07-04 15:02:00,
2015-07-04 10:07:00,75.7,61.3,29.98,North,-9999,-999.9,-999.0,61,0.00,,,0.00,meteohub,2015-07-04 15:07:00,
2015-07-04 10:12:00,75.9,61.0,29.98,North,-9999,-999.9,-999.0,60,0.00,,,0.00,meteohub,2015-07-04 15:12:00,
2015-07-04 10:17:00,75.7,60.4,29.98,North,-9999,-999.9,-999.0,59,0.00,,,0.00,meteohub,2015-07-04 15:17:00,
2015-07-04 10:22:00,76.1,58.8,29.98,North,-9999,-999.9,-999.0,55,0.00,,,0.00,meteohub,2015-07-04 15:22:00,
2015-07-04 10:27:00,76.3,59.9,29.98,North,-9999,-999.9,-999.0,57,0.00,,,0.00,meteohub,2015-07-04 15:27:00,
2015-07-04 10:32:00,76.5,61.5,29.98,North,-9999,-999.9,-999.0,60,0.00,,,0.00,meteohub,2015-07-04 15:32:00,
2015-07-04 10:37:00,76.5,59.2,29.99,North,-9999,-999.9,-999.0,55,0.00,,,0.00,meteohub,2015-07-04 15:37:00,
2015-07-04 10:42:00,76.3,61.0,29.98,North,-9999,-999.9,-999.0,59,0.00,,,0.00,meteohub,2015-07-04 15:42:00,
2015-07-04 10:47:00,76.3,61.0,29.99,North,-9999,-999.9,-999.0,59,0.00,,,0.00,meteohub,2015-07-04 15:47:00,
2015-07-04 10:52:00,76.6,58.8,29.98,North,-9999,-999.9,-999.0,54,0.00,,,0.00,meteohub,2015-07-04 15:52:00,
2015-07-04 10:57:00,76.8,58.5,29.99,North,-9999,-999.9,-999.0,53,0.00,,,0.00,meteohub,2015-07-04 15:57:00,
2015-07-04 11:02:00,76.5,56.5,29.99,North,-9999,-999.9,-999.0,50,0.00,,,0.00,meteohub,2015-07-04 16:02:00,
2015-07-04 11:07:00,76.8,59.9,29.99,North,-9999,-999.9,-999.0,56,0.00,,,0.00,meteohub,2015-07-04 16:07:00,
2015-07-04 11:12:00,77.7,59.2,29.99,North,-9999,-999.9,-999.0,53,0.00,,,0.00,meteohub,2015-07-04 16:12:00,
2015-07-04 11:17:00,78.1,55.6,29.99,North,-9999,-999.9,-999.0,46,0.00,,,0.00,meteohub,2015-07-04 16:17:00,
2015-07-04 11:22:00,77.4,56.1,29.99,North,-9999,-999.9,-999.0,48,0.00,,,0.00,meteohub,2015-07-04 16:22:00,
2015-07-04 11:27:00,77.0,58.6,29.99,North,-9999,-999.9,-999.0,53,0.00,,,0.00,meteohub,2015-07-04 16:27:00,
2015-07-04 11:32:00,77.2,58.6,29.98,North,-9999,-999.9,-999.0,53,0.00,,,0.00,meteohub,2015-07-04 16:32:00,
2015-07-04 11:37:00,77.5,56.8,29.99,North,-9999,-999.9,-999.0,49,0.00,,,0.00,meteohub,2015-07-04 16:37:00,
2015-07-04 11:42:00,78.3,60.3,29.99,North,-9999,-999.9,-999.0,54,0.00,,,0.00,meteohub,2015-07-04 16:42:00,
2015-07-04 11:47:00,78.8,58.1,29.99,North,-9999,-999.9,-999.0,49,0.00,,,0.00,meteohub,2015-07-04 16:47:00,
2015-07-04 11:52:00,79.2,58.3,29.99,North,-9999,-999.9,-999.0,49,0.00,,,0.00,meteohub,2015-07-04 16:52:00,
2015-07-04 11:57:00,79.2,59.0,29.99,North,-9999,-999.9,-999.0,50,0.00,,,0.00,meteohub,2015-07-04 16:57:00,
2015-07-04 12:02:00,79.2,55.9,29.98,North,-9999,-999.9,-999.0,45,0.00,,,0.00,meteohub,2015-07-04 17:02:00,
2015-07-04 12:07:00,78.8,56.3,29.98,North,-9999,-999.9,-999.0,46,0.00,,,0.00,meteohub,2015-07-04 17:07:00,
2015-07-04 12:12:00,78.8,54.5,29.98,North,-9999,-999.9,-999.0,43,0.00,,,0.00,meteohub,2015-07-04 17:12:00,
2015-07-04 12:17:00,78.8,56.3,29.98,North,-9999,-999.9,-999.0,46,0.00,,,0.00,meteohub,2015-07-04 17:17:00,
2015-07-04 12:22:00,79.2,57.2,29.98,North,-9999,-999.9,-999.0,47,0.00,,,0.00,meteohub,2015-07-04 17:22:00,
2015-07-04 12:27:00,79.2,55.9,29.98,North,-9999,-999.9,-999.0,45,0.00,,,0.00,meteohub,2015-07-04 17:27:00,
2015-07-04 12:32:00,78.8,55.6,29.98,North,-9999,-999.9,-999.0,45,0.00,,,0.00,meteohub,2015-07-04 17:32:00,
2015-07-04 12:37:00,78.8,58.6,29.98,North,-9999,-999.9,-999.0,50,0.00,,,0.00,meteohub,2015-07-04 17:37:00,
2015-07-04 12:42:00,79.3,56.8,29.98,North,-9999,-999.9,-999.0,46,0.00,,,0.00,meteohub,2015-07-04 17:42:00,
2015-07-04 12:47:00,79.7,59.9,29.98,North,-9999,-999.9,-999.0,51,0.00,,,0.00,meteohub,2015-07-04 17:47:00,